N9GIA Weather Reports


time (UTC)temp
C
wind
direction
speed
KPH
gust
KPH
rain 1hr
cm
rain 24hr
cm
rain mn
cm
humidity
%
barometer
mb
20260906131543 22 69 4.8 9.7 0.00 0.00 0.00 100 992.3
20260906130040 22 88 0.0 3.2 0.00 0.00 0.00 100 992.2
20260906124531 21 86 0.0 3.2 0.00 0.00 0.00 100 991.9
20260906123027 21 83 0.0 4.8 0.00 0.00 0.00 100 991.6
20260906121523 21 15 0.0 0.0 0.00 0.00 0.00 100 991.5
20260906120019 21 15 0.0 4.8 0.00 0.00 0.00 100 991.4
20260906114514 21 19 1.6 4.8 0.00 0.00 0.00 100 991.2
20260906113010 21 19 0.0 0.0 0.00 0.00 0.00 100 990.6
20260906111506 21 19 0.0 0.0 0.00 0.00 0.00 100 990.5
20260906110001 21 19 0.0 0.0 0.00 0.00 0.00 100 990.1
20260906104557 21 19 0.0 0.0 0.00 0.00 0.00 100 990.3
20260906103053 21 19 0.0 4.8 0.00 0.00 0.00 100 990.5
20260906101553 21 20 1.6 4.8 0.00 0.00 0.00 100 990.2
20260906100043 21 22 0.0 0.0 0.00 0.00 0.00 100 989.9
20260906094539 21 22 0.0 3.2 0.00 0.00 0.00 100 989.8
20260906093046 21 19 0.0 3.2 0.00 0.00 0.00 100 989.8
20260906091530 21 14 0.0 0.0 0.00 0.00 0.00 100 990.0
20260906090026 20 14 0.0 0.0 0.00 0.00 0.00 100 990.0
20260906084522 20 14 0.0 1.6 0.00 0.00 0.00 100 990.0
20260906083022 20 76 0.0 4.8 0.00 0.00 0.00 100 990.2
20260906081516 20 84 0.0 1.6 0.00 0.00 0.00 100 990.1
20260906080009 20 84 0.0 0.0 0.00 0.00 0.00 100 990.0
20260906074505 20 84 0.0 0.0 0.00 0.00 0.00 100 990.0
20260906073104 21 84 0.0 1.6 0.00 0.00 0.00 100 990.1
20260906071556 21 84 0.0 1.6 0.00 0.00 0.00 100 990.1
20260906070051 21 84 0.0 3.2 0.00 0.00 0.00 100 990.4
20260906064547 21 82 1.6 6.4 0.00 0.00 0.00 100 990.5
20260906063043 21 81 1.6 12.9 0.00 0.00 0.00 100 990.5
20260906061639 21 79 1.6 11.3 0.00 0.00 0.00 100 990.5
20260906060037 22 81 1.6 8.0 0.00 0.00 0.00 100 990.3
20260906054530 22 68 4.8 12.9 0.00 0.00 0.00 100 990.2
20260906053026 22 78 4.8 11.3 0.00 0.00 0.00 100 990.0
20260906051521 22 78 3.2 8.0 0.00 0.00 0.00 100 989.8
20260906050017 22 76 3.2 6.4 0.00 0.00 0.00 100 989.7
20260906044513 23 84 4.8 9.7 0.00 0.00 0.00 100 989.5
20260906043010 23 80 1.6 6.4 0.00 0.00 0.00 100 989.4
20260906041510 23 76 3.2 8.0 0.00 0.00 0.00 100 989.2
20260906040100 23 78 4.8 8.0 0.00 0.00 0.00 100 989.0
20260906034555 24 82 3.2 6.4 0.00 0.00 0.00 100 989.1
20260906033054 24 85 3.2 9.7 0.00 0.00 0.00 100 989.2
20260906031547 24 80 0.0 4.8 0.00 0.00 0.00 100 989.0
20260906030045 25 81 3.2 8.0 0.00 0.00 0.00 100 988.9
20260906024538 25 57 1.6 6.4 0.00 0.00 0.00 100 988.9
20260906023039 26 68 3.2 6.4 0.00 0.00 0.00 100 988.6
20260906021529 26 57 1.6 4.8 0.00 0.00 0.00 100 988.4
20260906020024 26 80 1.6 6.4 0.00 0.00 0.00 100 988.4
20260906014524 27 74 3.2 6.4 0.00 0.00 0.00 100 988.1
20260906013016 27 42 1.6 6.4 0.00 0.00 0.00 100 987.8
20260906011511 28 65 3.2 4.8 0.00 0.00 0.00 100 987.5
20260906010008 28 65 1.6 6.4 0.00 0.00 0.00 100 987.4
20260906004502 29 41 3.2 6.4 0.00 0.00 0.00 100 987.2
20260906003058 30 355 0.0 4.8 0.00 0.00 0.00 100 987.1
20260906001600 30 355 1.6 4.8 0.00 0.00 0.00 100 987.0
20260906000050 31 355 3.2 4.8 0.00 0.00 0.00 100 987.0
20260905234545 31 355 0.0 3.2 0.00 0.00 0.00 100 986.8
20260905233102 31 355 1.6 3.2 0.00 0.00 0.00 100 987.0
20260905231549 31 355 3.2 6.4 0.00 0.00 0.00 100 986.9
20260905230032 31 355 3.2 6.4 0.00 0.00 0.00 100 986.8
20260905224528 32 351 1.6 8.0 0.00 0.00 0.00 100 986.6
20260905223023 32 360 3.2 6.4 0.00 0.00 0.00 23 986.6
20260905221531 32 18 1.6 8.0 0.00 0.00 0.00 21 986.7
20260905220014 32 5 0.0 8.0 0.00 0.00 0.00 28 986.7
20260905214511 32 355 3.2 8.0 0.00 0.00 0.00 39 986.6
20260905213005 33 39 1.6 4.8 0.00 0.00 0.00 39 986.5
20260905211501 33 355 0.0 8.0 0.00 0.00 0.00 50 986.5
20260905210057 33 355 11.3 17.7 0.00 0.00 0.00 58 986.6
20260905204553 33 355 6.4 12.9 0.00 0.00 0.00 58 986.8
20260905203052 33 360 6.4 17.7 0.00 0.00 0.00 60 986.8
20260905201544 33 326 6.4 12.9 0.00 0.00 0.00 60 986.8
20260905200043 34 355 6.4 12.9 0.00 0.00 0.00 59 986.8
20260905194535 34 347 6.4 12.9 0.00 0.00 0.00 60 986.8
20260905193031 34 360 9.7 16.1 0.00 0.00 0.00 59 987.0
20260905191526 34 351 8.0 16.1 0.00 0.00 0.00 60 987.2
20260905190024 33 355 6.4 12.9 0.00 0.00 0.00 60 987.2
20260905184521 33 9 8.0 14.5 0.00 0.00 0.00 59 987.4
20260905183013 34 355 11.3 19.3 0.00 0.00 0.00 59 987.5
20260905181508 33 360 8.0 20.9 0.00 0.00 0.00 59 987.5
20260905180004 34 351 8.0 16.1 0.00 0.00 0.00 60 987.5
20260905174601 33 298 8.0 19.3 0.00 0.00 0.00 59 987.7
20260905173057 33 5 9.7 14.5 0.00 0.00 0.00 60 987.6
20260905171553 33 360 6.4 14.5 0.00 0.00 0.00 59 987.8
20260905170047 33 337 8.0 12.9 0.00 0.00 0.00 58 987.9
20260905164542 33 322 9.7 14.5 0.00 0.00 0.00 59 988.0
20260905163038 33 338 8.0 12.9 0.00 0.00 0.00 59 988.3
20260905161533 32 318 3.2 9.7 0.00 0.00 0.00 59 988.3
20260905160030 32 355 1.6 6.4 0.00 0.00 0.00 57 988.3
20260905154524 32 355 1.6 8.0 0.00 0.00 0.00 54 988.3
20260905153020 31 332 1.6 6.4 0.00 0.00 0.00 54 988.4
20260905151516 31 165 0.0 0.0 0.00 0.00 0.00 4 988.4
20260905150011 31 165 0.0 0.0 0.00 0.00 0.00 100 988.2
20260905144507 30 165 0.0 0.0 0.00 0.00 0.00 100 988.0
20260905143003 28 165 0.0 0.0 0.00 0.00 0.00 100 987.9
20260905141623 27 165 0.0 3.2 0.00 0.00 0.00 100 987.8
20260905140055 26 163 0.0 3.2 0.00 0.00 0.00 100 987.9
20260905134551 25 163 0.0 1.6 0.00 0.00 0.00 100 988.2
20260905133045 25 163 0.0 3.2 0.00 0.00 0.00 100 988.0